GALAXY 25 (G-25)

Last updated on Jan. 15, 2021, 6:30 a.m. UTC

1 24812U 97026A   21014.82757632  .00000146  00000-0  00000-0 0  9990
2 24812   2.4257  88.6271 0003080 191.2969 165.3499  1.00270379 86526
UTC
Height (km)
Latitude
Longitude
Inclination
Orbital Period
UTC large
Height (km)
Speed (km/s)
/
Latitude / Longitude
Inclination (degrees)
Orbital Period (minutes)
Azimuth
Elevation
Range (km)
Doppler Factor
iOS Compass Heading
iOS Angle

Next 30 passes for location: Hong Kong

Rise time Rise Azimuth (degrees) Set time Set Azimuth (degrees) Duration Max altitude (degrees)

No matching passes for this satellites